Terminal Aerodrome Forecast
Issued by NWS Austin/San Antonio, TX

Home | Current Version | Previous Version | Text Only | Print | Product List | Glossary On
Versions: 1 2 3 4 5 6 7 8 9 10 11 12 13 14 15 16 17 18 19 20 21 22 23 24 25 26
000
FTUS44 KEWX 251732
TAFDRT
TAF
KDRT 251732Z 2518/2618 31005KT P6SM SKC
     FM252300 19010KT P6SM SKC
     FM261000 11007KT 5SM BR OVC025
     FM261500 22008KT P6SM SCT050=

USA.gov is the U.S. government's official web portal to all federal, state and local government web resources and services.